Tracking 30703 objects as of 13-Jun-2025
HD Live streaming from Space Station
objects crossing your sky now

PSLV DEB

Track PSLV DEB now!
10-day predictions


NORAD ID: 34221
Int'l Code: 2001-049PR
Perigee: 512.9 km
Apogee: 569.9 km
Inclination: 98.5 °
Period: 95.3 minutes
Semi major axis: 6912 km
RCS: 0.0004 m2 (small)
Launch date: October 22, 2001
Source: India (IND)
Launch site: SRIHARIKOTA (SRI)

Note: This is SATELLITE DEBRIS
Your satellite tracking list
Your tracking list is empty




NASA's NSSDC Master Catalog

Two Line Element Set (TLE):
1 34221U 01049PR  25163.67855216  .00002063  00000-0  12724-3 0  9993
2 34221  98.4959  61.7065 0041230 300.1754  59.5391 15.10641116258545
Source of the keplerian elements: AFSPC